User: anonymous
Location: Mentone
(34.5413°N, 85.5351°W)
Time: 23:11:38
(UTC-05:00)
Language:

Centaur AC-72 - Orbit

View from above orbital plane
View from above orbital plane
View from above satellite
View from above satellite

Ground track
Ground track

The orbit data is extracted from the following two-line orbital elements,

1 21907U 92013B   14103.71532508 -.00000002  00000-0  00000+0 0  8579
2 21907 019.3980 282.1220 6958604 194.0685 345.2496 02.25604409182083
Epoch (UTC): 13 April 2014 17:10:04
Eccentricity: 0.6958604
inclination: 19.3980°
perigee height: 1090 km
apogee height: 35266 km
right ascension of ascending node: 282.1220°
argument of perigee: 194.0685°
revolutions per day: 2.25604409
mean anomaly at epoch: 345.2496°
orbit number at epoch: 18208

The dashed part of the orbit path shows where the satellite is in the earth's shadow,  

DLR